This is the latest recevied weather packets stored in our database for station/object HR1LRC-21. If no packets are shown the sender has not sent any weather packets the latest 10 day(s).
| Time | Temp. | Humidity | Pressure | Rain* | Wind** | Luminosity | Snow |
|---|---|---|---|---|---|---|---|
| 1777668862 | 26.11° C | 32% | 1007 hPa | 0 mm | - | - | - |
| 1777668262 | 26.11° C | 33% | 1007 hPa | 0 mm | - | - | - |
| 1777667661 | 26.11° C | 33% | 1007 hPa | 0 mm | - | - | - |
| 1777667060 | 26.67° C | 34% | 1008 hPa | 0 mm | - | - | - |
| 1777666460 | 26.67° C | 33% | 1007 hPa | 0 mm | - | - | - |
| 1777665859 | 26.67° C | 33% | 1007 hPa | 0 mm | - | - | - |
| 1777665258 | 26.67° C | 32% | 1007 hPa | 0 mm | - | - | - |
| 1777664658 | 26.67° C | 33% | 1008 hPa | 0 mm | - | - | - |
| 1777664057 | 26.67° C | 33% | 1008 hPa | 0 mm | - | - | - |
| 1777663457 | 27.22° C | 35% | 1009 hPa | 0 mm | - | - | - |
| 1777662856 | 27.22° C | 33% | 1009 hPa | 0 mm | - | - | - |
| 1777662255 | 27.22° C | 33% | 1009 hPa | 0 mm | - | - | - |
| 1777661655 | 27.22° C | 32% | 1009 hPa | 0 mm | - | - | - |
| 1777661054 | 27.22° C | 34% | 1009 hPa | 0 mm | - | - | - |
| 1777660453 | 27.22° C | 34% | 1009 hPa | 0 mm | - | - | - |
| 1777659853 | 26.11° C | 38% | 1011 hPa | 0 mm | - | - | - |
| 1777659252 | 26.11° C | 37% | 1011 hPa | 0 mm | - | - | - |
| 1777658652 | 26.11° C | 37% | 1011 hPa | 0 mm | - | - | - |
| 1777658051 | 25.56° C | 36% | 1011 hPa | 0 mm | - | - | - |
| 1777657450 | 25.56° C | 38% | 1011 hPa | 0 mm | - | - | - |
| 1777656850 | 25.56° C | 38% | 1011 hPa | 0 mm | - | - | - |
| 1777656249 | 25° C | 43% | 1012 hPa | 0 mm | - | - | - |
| 1777655648 | 25° C | 43% | 1012 hPa | 0 mm | - | - | - |
| 1777655048 | 25° C | 43% | 1012 hPa | 0 mm | - | - | - |
| 1777654447 | 24.44° C | 43% | 1012 hPa | 0 mm | - | - | - |
* Rain latest hour (hover to see other rain measurements)
** Current wind speed in m/s (hover to see current wind gust speed)